{"data":{"norad_id":50812,"epoch":"2026-09-19T06:22:07.033152Z","epoch_age_seconds":151561,"freshness":"FRESH","line1":"1 50812U 22001K   26262.26535918 -.00000326  00000+0  14951-5 0  9994","line2":"2 50812  53.1620   1.2538 0001020  78.6776 281.4341 15.34387540259883","mean_motion":15.3438754,"eccentricity":0.000102,"inclination_deg":53.162,"raan_deg":1.2538,"arg_perigee_deg":78.6776,"mean_anomaly_deg":281.4341,"bstar":1.4951e-6,"rev_number":25988,"period_min":93.84852017242,"perigee_km":462.04250472157,"apogee_km":463.43804368551,"semimajor_km":6840.8772742035,"source":"CELESTRAK","updated_at":"2026-09-20T09:00:39.576208Z"}}